Hourly Weather Abolcy

Today, 25 September, Friday

Time Temperature Precipitation Wind Pressure Humidity
00:00 +13°C° 0 mm 3 mps 748 mmHg 53%
01:00 +14°C° 0 mm 2 mps 748 mmHg 53%
02:00 +14°C° 0 mm 2 mps 747 mmHg 54%
03:00 +13°C° 0 mm 2 mps 747 mmHg 55%
04:00 +13°C° 0 mm 2 mps 747 mmHg 57%
05:00 +13°C° 0 mm 2 mps 747 mmHg 58%
06:00 +14°C° 0 mm 2 mps 747 mmHg 58%
07:00 +14°C° 0 mm 2 mps 747 mmHg 58%
08:00 +14°C° 0 mm 3 mps 747 mmHg 57%
09:00 +17°C° 0 mm 3 mps 746 mmHg 55%
10:00 +19°C° 0 mm 3 mps 746 mmHg 53%
11:00 +20°C° 0 mm 3 mps 746 mmHg 50%
12:00 +22°C° 0 mm 4 mps 746 mmHg 48%
13:00 +23°C° 0 mm 4 mps 746 mmHg 46%
14:00 +25°C° 0 mm 5 mps 746 mmHg 44%
15:00 +23°C° 0 mm 4 mps 745 mmHg 48%
16:00 +22°C° 0 mm 4 mps 745 mmHg 53%
17:00 +21°C° 0 mm 4 mps 745 mmHg 57%
18:00 +20°C° 0 mm 4 mps 745 mmHg 60%
19:00 +19°C° 0 mm 4 mps 745 mmHg 63%
20:00 +17°C° 0 mm 4 mps 745 mmHg 66%
21:00 +17°C° 0 mm 4 mps 744 mmHg 64%
22:00 +17°C° 0 mm 4 mps 744 mmHg 63%
23:00 +17°C° 0 mm 4 mps 744 mmHg 61%

Tomorrow, 26 September, Saturday

Time Temperature Precipitation Wind Pressure Humidity
00:00 +17°C° 0 mm 4 mps 744 mmHg 61%
01:00 +15°C° 0 mm 4 mps 744 mmHg 62%
02:00 +15°C° 0 mm 4 mps 744 mmHg 62%
03:00 +15°C° 0 mm 4 mps 744 mmHg 63%
04:00 +15°C° 0 mm 4 mps 744 mmHg 64%
05:00 +14°C° 0 mm 4 mps 744 mmHg 65%
06:00 +15°C° 0 mm 5 mps 744 mmHg 64%
07:00 +16°C° 0 mm 5 mps 744 mmHg 64%
08:00 +17°C° 0 mm 6 mps 744 mmHg 64%
09:00 +19°C° 0 mm 6 mps 744 mmHg 58%
10:00 +21°C° 0 mm 6 mps 744 mmHg 53%
11:00 +23°C° 0 mm 7 mps 744 mmHg 48%
12:00 +24°C° 0 mm 7 mps 744 mmHg 47%
13:00 +24°C° 0 mm 7 mps 744 mmHg 45%
14:00 +26°C° 0 mm 7 mps 744 mmHg 44%
15:00 +24°C° 0 mm 6 mps 744 mmHg 47%
16:00 +23°C° 0 mm 6 mps 744 mmHg 50%
17:00 +22°C° 0 mm 5 mps 743 mmHg 53%
18:00 +21°C° 0 mm 6 mps 743 mmHg 53%
19:00 +21°C° 0 mm 6 mps 743 mmHg 53%
20:00 +20°C° 0 mm 7 mps 743 mmHg 53%
21:00 +20°C° 0 mm 6 mps 743 mmHg 49%
22:00 +20°C° 0 mm 6 mps 744 mmHg 45%
23:00 +20°C° 0 mm 6 mps 744 mmHg 41%

Day after tomorrow, 27 September, Sunday

Time Temperature Precipitation Wind Pressure Humidity
00:00 +19°C° 0 mm 6 mps 743 mmHg 41%
01:00 +19°C° 0 mm 6 mps 743 mmHg 41%
02:00 +17°C° 0 mm 6 mps 743 mmHg 41%
03:00 +17°C° 0 mm 6 mps 743 mmHg 40%
04:00 +17°C° 0 mm 6 mps 743 mmHg 39%
05:00 +17°C° 0 mm 7 mps 743 mmHg 39%
06:00 +17°C° 0 mm 7 mps 743 mmHg 42%
07:00 +17°C° 0 mm 7 mps 743 mmHg 46%
08:00 +18°C° 0 mm 8 mps 743 mmHg 49%
09:00 +18°C° 0 mm 8 mps 743 mmHg 49%
10:00 +20°C° 0 mm 8 mps 743 mmHg 49%
11:00 +19°C° 0 mm 9 mps 743 mmHg 49%
12:00 +19°C° 0.2 mm 9 mps 743 mmHg 52%
13:00 +19°C° 0.2 mm 9 mps 743 mmHg 55%
14:00 +19°C° 0.2 mm 9 mps 743 mmHg 58%
15:00 +18°C° 0.3 mm 8 mps 743 mmHg 65%
16:00 +17°C° 0.3 mm 8 mps 743 mmHg 72%
17:00 +16°C° 0.3 mm 7 mps 744 mmHg 79%
18:00 +16°C° 0.1 mm 6 mps 745 mmHg 81%
19:00 +15°C° 0.1 mm 4 mps 745 mmHg 83%
20:00 +14°C° 0.1 mm 3 mps 746 mmHg 85%
21:00 +12°C° 0 mm 3 mps 747 mmHg 87%
22:00 +11°C° 0 mm 3 mps 747 mmHg 90%
23:00 +10°C° 0 mm 2 mps 748 mmHg 92%

28 September, Monday

Time Temperature Precipitation Wind Pressure Humidity
00:00 +9°C° 0 mm 2 mps 748 mmHg 92%
01:00 +10°C° 0 mm 1 mps 749 mmHg 93%
02:00 +9°C° 0 mm 1 mps 749 mmHg 93%
03:00 +9°C° 0 mm 1 mps 749 mmHg 92%
04:00 +9°C° 0 mm 1 mps 750 mmHg 92%
05:00 +9°C° 0 mm 1 mps 750 mmHg 91%
06:00 +10°C° 0 mm 1 mps 750 mmHg 87%
07:00 +11°C° 0 mm 1 mps 750 mmHg 83%
08:00 +12°C° 0 mm 1 mps 751 mmHg 79%
09:00 +13°C° 0 mm 1 mps 751 mmHg 71%
10:00 +15°C° 0 mm 1 mps 751 mmHg 64%
11:00 +18°C° 0 mm 1 mps 751 mmHg 57%
12:00 +19°C° 0 mm 1 mps 751 mmHg 53%
13:00 +19°C° 0 mm 2 mps 751 mmHg 50%
14:00 +20°C° 0 mm 2 mps 750 mmHg 46%
15:00 +19°C° 0 mm 3 mps 750 mmHg 51%
16:00 +18°C° 0 mm 3 mps 750 mmHg 56%
17:00 +17°C° 0 mm 3 mps 750 mmHg 60%
18:00 +16°C° 0 mm 3 mps 750 mmHg 62%
19:00 +15°C° 0 mm 4 mps 750 mmHg 63%
20:00 +14°C° 0 mm 5 mps 750 mmHg 64%
21:00 +14°C° 0 mm 5 mps 749 mmHg 64%
22:00 +15°C° 0 mm 5 mps 749 mmHg 64%
23:00 +15°C° 0 mm 5 mps 749 mmHg 63%

29 September, Tuesday

Time Temperature Precipitation Wind Pressure Humidity
00:00 +15°C° 0 mm 5 mps 749 mmHg 63%
01:00 +15°C° 0 mm 5 mps 749 mmHg 63%
02:00 +14°C° 0 mm 5 mps 748 mmHg 63%
03:00 +14°C° 0 mm 5 mps 748 mmHg 65%
04:00 +15°C° 0 mm 5 mps 748 mmHg 66%
05:00 +15°C° 0 mm 5 mps 748 mmHg 68%
06:00 +15°C° 0 mm 5 mps 747 mmHg 67%
07:00 +15°C° 0 mm 4 mps 747 mmHg 66%
08:00 +15°C° 0 mm 4 mps 747 mmHg 65%
09:00 +17°C° 0 mm 4 mps 747 mmHg 61%
10:00 +19°C° 0 mm 5 mps 746 mmHg 56%
11:00 +20°C° 0 mm 5 mps 746 mmHg 52%
12:00 +21°C° 0 mm 5 mps 746 mmHg 50%
13:00 +22°C° 0 mm 6 mps 745 mmHg 48%
14:00 +22°C° 0 mm 6 mps 745 mmHg 46%
15:00 +22°C° 0 mm 5 mps 744 mmHg 50%
16:00 +21°C° 0 mm 5 mps 744 mmHg 53%
17:00 +20°C° 0 mm 5 mps 743 mmHg 57%
18:00 +19°C° 0 mm 5 mps 743 mmHg 59%
19:00 +19°C° 0 mm 6 mps 743 mmHg 60%
20:00 +17°C° 0 mm 7 mps 743 mmHg 62%
21:00 +17°C° 0 mm 7 mps 742 mmHg 63%
22:00 +16°C° 0 mm 6 mps 742 mmHg 63%
23:00 +16°C° 0 mm 6 mps 742 mmHg 64%

30 September, Wednesday

Time Temperature Precipitation Wind Pressure Humidity
00:00 +16°C° 0 mm 6 mps 741 mmHg 61%
01:00 +15°C° 0 mm 6 mps 741 mmHg 59%
02:00 +15°C° 0 mm 6 mps 740 mmHg 57%
03:00 +14°C° 0.5 mm 6 mps 740 mmHg 63%
04:00 +14°C° 0.5 mm 7 mps 740 mmHg 69%
05:00 +12°C° 0.5 mm 7 mps 739 mmHg 74%
06:00 +12°C° 0.1 mm 8 mps 739 mmHg 78%
07:00 +13°C° 0.1 mm 8 mps 739 mmHg 81%
08:00 +13°C° 0.1 mm 9 mps 739 mmHg 84%
09:00 +13°C° 0.1 mm 9 mps 739 mmHg 85%
10:00 +13°C° 0.1 mm 8 mps 739 mmHg 85%
11:00 +13°C° 0.1 mm 8 mps 740 mmHg 86%
12:00 +12°C° 1.3 mm 8 mps 740 mmHg 88%
13:00 +11°C° 1.3 mm 8 mps 740 mmHg 89%
14:00 +11°C° 1.3 mm 8 mps 740 mmHg 91%
15:00 +11°C° 0.5 mm 8 mps 740 mmHg 90%
16:00 +11°C° 0.5 mm 7 mps 740 mmHg 90%
17:00 +10°C° 0.5 mm 7 mps 740 mmHg 90%
18:00 +10°C° 0.6 mm 7 mps 740 mmHg 91%
19:00 +11°C° 0.6 mm 7 mps 740 mmHg 91%
20:00 +11°C° 0.6 mm 6 mps 740 mmHg 92%
21:00 +11°C° 0.2 mm 6 mps 740 mmHg 91%
22:00 +11°C° 0.2 mm 6 mps 740 mmHg 91%
23:00 +13°C° 0.2 mm 6 mps 740 mmHg 91%
Show more